Regional Weather Roundup
Issued by NWS

Home | Current Version | Previous Version | Graphics & Text | Print | Product List | Glossary On
Versions: 1 2 3 4 5 6 7 8 9 10 11 12 13 14 15 16 17 18 19 20 21 22 23 24 25 26 27 28 29 30 31 32 33 34 35 36 37 38 39 40 41 42 43 44 45 46 47 48 49 50
000
ASUS43 KOAX 051502
RWRNE

WEATHER ROUNDUP FOR NEBRASKA
NATIONAL WEATHER SERVICE OMAHA NE
900 AM CST MON DEC 05 2016

NOTES: SATELLITE DATA IS BEING USED TO AUGMENT CLOUD COVER ABOVE
       12000 FEET.
       "FAIR" INDICATES FEW OR NO CLOUDS BELOW 12,000 FEET WITH NO
       SIGNIFICANT WEATHER AND/OR OBSTRUCTIONS TO VISIBILITY.

  * THESE STATIONS DO NOT REPORT WEATHER SUCH AS RAIN...SNOW OR FOG.

NEZ001>004-019>022-054>056-051600-
NEBRASKA PANHANDLE

CITY           SKY/WX    TMP DP  RH WIND       PRES   REMARKS
SCOTTSBLUFF    CLOUDY    43  22  43 NW8       29.55R
ALLIANCE       CLOUDY    37  22  54 SW10      29.53S WCI  30
CHADRON        PTCLDY    32  25  75 W5        29.57R WCI  27
KIMBALL        CLOUDY    38  26  61 W9        29.58S WCI  31
SIDNEY         CLOUDY    45  22  40 W14       29.57S
$$

NEZ057>060-069>072-079>082-051600-
SOUTHWEST NEBRASKA

CITY           SKY/WX    TMP DP  RH WIND       PRES   REMARKS
NORTH PLATTE   CLOUDY    34  21  59 CALM      29.59F
IMPERIAL       CLOUDY    33  18  53 W3        29.58R
LEXINGTON      CLOUDY    35  25  65 CALM      29.61R
MCCOOK         CLOUDY    29  22  75 CALM      29.58F
OGALLALA       CLOUDY    35  23  61 CALM      29.57S
$$

NEZ005>010-023>029-035>040-094-051600-
NORTH CENTRAL NEBRASKA

CITY           SKY/WX    TMP DP  RH WIND       PRES   REMARKS
VALENTINE      PTCLDY    43  22  43 SW10      29.48F
AINSWORTH      CLEAR     40  25  54 SW8       29.49F WCI  35
BROKEN BOW     CLOUDY    35  25  66 S7        29.59R WCI  29
O`NEILL        CLOUDY    38  24  57 S12       29.53F WCI  30
ORD            PTSUNNY   37  23  56 S10       29.58F WCI  30
THEDFORD       CLOUDY    53  27  36 W13G21    29.53S
$$

NEZ041-046>049-061>064-073>077-083>087-051600-
SOUTH CENTRAL NEBRASKA

CITY           SKY/WX    TMP DP  RH WIND       PRES   REMARKS
GRAND ISLAND   CLOUDY    37  28  70 S12       29.63F WCI  29
AURORA         MOSUNNY   36  29  76 S15       29.64F WCI  26
HASTINGS       MOSUNNY   36  27  69 S14       29.64F WCI  27
HEBRON         MOSUNNY   36  29  75 S14       29.69F WCI  27
HOLDREGE       CLOUDY    35  26  70 S9G16     29.60F WCI  28
KEARNEY *      CLOUDY    37  25  60 S12       29.60F WCI  30
YORK           PTSUNNY   36  28  75 S13       29.67S WCI  27
$$

NEZ011>018-030>034-042>045-051600-
NORTHEAST NEBRASKA

CITY           SKY/WX    TMP DP  RH WIND       PRES   REMARKS
NORFOLK        CLOUDY    37  27  67 S17G24    29.61F WCI  27
ALBION         MOSUNNY   35  28  76 SE9       29.61F WCI  28
BLAIR          SUNNY     37  31  78 S15G21    29.71F WCI  28
FREMONT        CLOUDY    36  30  78 SE10      29.72R WCI  29
TEKAMAH        CLOUDY    34  30  85 SE15      29.71F WCI  24
WAYNE          PTSUNNY   37  30  75 S17G23    29.63S WCI  28
$$

NEZ050>053-065>068-078-088>093-051600-
SOUTHEAST NEBRASKA

CITY           SKY/WX    TMP DP  RH WIND       PRES   REMARKS
LINCOLN        CLOUDY    39  30  70 S10       29.73F WCI  32
OMAHA EPPLEY   PTSUNNY   39  31  72 S18       29.75F WCI  30
BEATRICE       SUNNY     38  32  78 S15       29.73F WCI  29
FALLS CITY     SUNNY     37  34  89 S14       29.81F WCI  28
NEBRASKA CITY  SUNNY     36  32  85 S17       29.77F WCI  25
PLATTSMOUTH    SUNNY     35  29  79 SE12      29.76S WCI  27
$$

NEZ044-045-051>053-067-051600-
OMAHA AREA

CITY           SKY/WX    TMP DP  RH WIND       PRES   REMARKS
OMAHA EPPLEY   PTSUNNY   39  31  72 S18       29.75F WCI  30
BLAIR          SUNNY     37  31  78 S15G21    29.71F WCI  28
FREMONT        CLOUDY    36  30  78 SE10      29.72R WCI  29
MILLARD        CLOUDY    36  31  82 SE8       29.76S WCI  30
PLATTSMOUTH    SUNNY     35  29  79 SE12      29.76S WCI  27
WAHOO          FAIR      35  29  79 S14       29.71S WCI  26
$$




USA.gov is the U.S. government's official web portal to all federal, state and local government web resources and services.